[[{"header":{"parameterUnit":"m.s-1","parameterCategory":1,"la1":30.2991,"la2":30.254,"lo1":-89.0895,"lo2":-89.0444,"dy":0.0017,"dx":0.0017,"nx":28,"ny":28,"refTime":"2023-10-15T03:00:00:Z","depth":0,"parameterNumber":2,"parameterNumberName":"U-component_of_WINDS"},"data":[0,0,0,0,0,0,0,0,0,0,0,0,0,0,0,0,0,0,0,0,0,0,0,0,0,0,0,0,0,0,0,0,0,0,0,0,0,0,0,0,0,0,0,0,0,0,0,0,0,0,0,0,0,0,0,0,0,0,0.598,0.598,0,0.5964,0.5963,0.5963,0.597,0.5971,0.5971,0.5971,0.5953,0.5952,0.5952,0,0,0,0,0,0,0,0,0,0,0,0,0,0.6018,0.6017,0.598,0.598,0.598,0.5964,0.5963,0.5963,0.597,0.5971,0.5971,0.5972,0.5953,0.5952,0.5951,0,0,0,0,0,0,0,0,0,0,0,0,0,0.6002,0.6017,0.598,0.5982,0.5981,0.5964,0.5963,0.5963,0.597,0.5971,0.5971,0.5972,0.5954,0.5953,0.5951,0.5931,0,0,0.5947,0.5947,0,0,0,0,0,0,0,0,0.6003,0.6,0.5982,0.5981,0.5981,0.597,0.597,0.5952,0.597,0.5974,0.5971,0.5972,0.5958,0.5956,0.5952,0.593,0.5929,0.5947,0.5946,0.5946,0.5945,0,0,0,0,0,0,0,0.6004,0.6001,0.5974,0.5981,0.5981,0.5983,0.5981,0.5967,0.5963,0.5974,0.5974,0.5972,0.5958,0.5953,0.5952,0.5929,0.5947,0.5946,0.5945,0.5945,0.589,0.589,0,0,0,0,0,0,0.6005,0.6002,0.5974,0.5973,0.5994,0.5982,0.598,0.5973,0.5963,0.5962,0.5972,0.5973,0.5955,0.5953,0.5951,0.5926,0.5946,0.5945,0.5944,0.5891,0.589,0.5889,0,0,0,0,0,0,0.6006,0.6002,0.5975,0.5988,0.5984,0.598,0.5972,0.5972,0.5967,0.5962,0.5961,0.5968,0.5956,0.5953,0.5936,0.5926,0.5944,0.5943,0.5892,0.5891,0.589,0.5877,0,0,0,0,0,0,0.6007,0.6003,0.5995,0.5987,0.5984,0.596,0.5972,0.5971,0.5965,0.5966,0.5957,0.5956,0.5956,0.5938,0.5935,0.5924,0.5942,0.5893,0.5891,0.589,0.5878,0.5876,0.5874,0,0,0,0,0,0.6008,0.5992,0.5994,0.5991,0.5974,0.596,0.5957,0.5957,0.5964,0.5956,0.5953,0.5957,0.5928,0.5936,0.5933,0.5922,0.5893,0.5892,0.589,0.588,0.5876,0.5874,0,0,0,0,0,0,0.5997,0.5991,0.5994,0.5974,0.5968,0.5961,0.5951,0.5954,0.5945,0.5946,0.5946,0.5944,0.5927,0.5923,0.5932,0.5902,0.5912,0.5909,0.5905,0.5902,0.5899,0.59,0.5941,0,0,0,0,0,0.5993,0.5982,0.5977,0.5961,0.5957,0.5955,0.5948,0.5949,0.5942,0.5939,0.5934,0.5927,0.5916,0.5909,0.5899,0.5879,0.5877,0.5869,0.5867,0.5865,0.5863,0.5852,0.5848,0.5884,0.5884,0.5884,0,0,0.5983,0.5978,0.5972,0.5958,0.5953,0.5942,0.5952,0.594,0.5931,0.5937,0.5921,0.5917,0.5909,0.589,0.5882,0.5887,0.5853,0.5863,0.5862,0.586,0.585,0.5846,0.5843,0.5883,0.5884,0.5884,0,0,0.596,0.5955,0.5941,0.5936,0.5928,0.5927,0.5923,0.5916,0.5914,0.5898,0.5903,0.5893,0.5874,0.5868,0.5863,0.5838,0.5841,0.5835,0.5822,0.5811,0.5808,0.5806,0.5796,0.5793,0.5833,0.5833,0.5833,0,0.5949,0.5932,0.5933,0.592,0.5914,0.592,0.5906,0.5901,0.589,0.5885,0.5891,0.5868,0.5863,0.5843,0.5837,0.5833,0.5829,0.5835,0.5809,0.5806,0.5804,0.5795,0.5791,0.5832,0.5832,0.5832,0.5833,0,0.5918,0.5907,0.5896,0.5886,0.5879,0.5865,0.5865,0.5858,0.5859,0.5857,0.5841,0.5835,0.5824,0.582,0.5821,0.58,0.5803,0.5809,0.5818,0.58,0.5791,0.5788,0.5831,0.5831,0.5832,0.5832,0,0,0.5886,0.5878,0.5874,0.5869,0.5862,0.5852,0.584,0.5829,0.5823,0.5816,0.5804,0.5789,0.5795,0.5788,0.5789,0.578,0.576,0.5787,0.5787,0.5781,0.5736,0.5731,0.5727,0.5763,0.5763,0.5762,0.5737,0,0.5861,0.5838,0.584,0.5818,0.5807,0.5813,0.5802,0.5796,0.5794,0.5785,0.5783,0.5772,0.578,0.5776,0.5768,0.5765,0.5751,0.5767,0.5752,0.5751,0.5752,0.5723,0.5717,0.5694,0.5734,0.5733,0.5733,0,0.5829,0.5821,0.5798,0.5792,0.5788,0.5778,0.5768,0.576,0.5753,0.5753,0.5746,0.5749,0.5736,0.5747,0.5729,0.5739,0.5733,0.5731,0.573,0.5728,0.574,0.5719,0.5686,0.5682,0.5728,0.5728,0.5728,0,0.5806,0.579,0.5774,0.5771,0.5764,0.5756,0.5753,0.5748,0.5742,0.5734,0.573,0.572,0.5715,0.5708,0.5708,0.5716,0.5689,0.57,0.5687,0.5687,0.568,0.568,0.5645,0.5679,0.5679,0.5679,0.5679,0,0.5777,0.5763,0.5764,0.5754,0.5739,0.5741,0.5725,0.5723,0.5718,0.5708,0.5713,0.5703,0.5705,0.5695,0.5695,0.568,0.5678,0.5676,0.5676,0.5675,0.5675,0.567,0.5671,0.5678,0.5678,0.5678,0.5678,0,0.5749,0.5749,0.5732,0.5728,0.5727,0.5715,0.5711,0.5702,0.5701,0.5688,0.5686,0.5684,0.5673,0.5673,0.566,0.5661,0.5641,0.5644,0.5643,0.5643,0.563,0.5631,0.559,0.5584,0.5623,0.5622,0.5622,0,0.573,0.5719,0.5714,0.5708,0.5704,0.5694,0.5688,0.569,0.5683,0.5676,0.5667,0.5657,0.5649,0.5631,0.5629,0.5619,0.5621,0.5607,0.5619,0.5618,0.5619,0.5619,0.5618,0.5604,0.5603,0.5603,0.5603,0,0.5696,0.5697,0.5688,0.5679,0.5672,0.5665,0.5659,0.5653,0.5655,0.5647,0.5636,0.563,0.5618,0.5607,0.5598,0.5595,0.5599,0.5599,0.5596,0.5594,0.5593,0.5592,0.5635,0.56,0.56,0.56,0.5601,0.5601,0.5671,0.5662,0.5656,0.5646,0.5642,0.5636,0.5627,0.5626,0.5617,0.5607,0.5609,0.5597,0.5591,0.558,0.5576,0.5566,0.5571,0.5566,0.5564,0.5563,0.5561,0.5596,0.5565,0.5565,0.5565,0.5565,0.5565,0,0.5636,0.5634,0.5624,0.5616,0.5608,0.5614,0.5607,0.56,0.5589,0.5584,0.5576,0.5564,0.5554,0.5551,0.5542,0.5534,0.5536,0.5532,0.5531,0.5531,0.5558,0.5561,0.553,0.553,0.553,0.553,0.553,0.553,0.5617,0.5601,0.5602,0.5584,0.5582,0.557,0.5566,0.556,0.5556,0.5542,0.5534,0.5533,0.5529,0.5519,0.551,0.551,0.5506,0.55,0.55,0.5525,0.5529,0.5532,0.5535,0.55,0.55,0.5474,0.5474,0.5474]},{"header":{"parameterUnit":"m.s-1","parameterCategory":1,"la1":30.2991,"la2":30.254,"lo1":-89.0895,"lo2":-89.0444,"dy":0.0017,"dx":0.0017,"nx":28,"ny":28,"refTime":"2023-10-15T03:00:00:Z","depth":0,"parameterNumber":3,"parameterNumberName":"V-component_of_WINDS"},"data":[0,0,0,0,0,0,0,0,0,0,0,0,0,0,0,0,0,0,0,0,0,0,0,0,0,0,0,0,0,0,0,0,0,0,0,0,0,0,0,0,0,0,0,0,0,0,0,0,0,0,0,0,0,0,0,0,0,0,-6.8088,-6.8089,0,-6.8233,-6.8235,-6.8237,-6.8203,-6.82,-6.8197,-6.8195,-6.834,-6.8346,-6.8352,0,0,0,0,0,0,0,0,0,0,0,0,0,-6.7778,-6.7783,-6.8088,-6.8089,-6.8091,-6.8233,-6.8235,-6.8237,-6.8203,-6.82,-6.8197,-6.8194,-6.8338,-6.8345,-6.8353,0,0,0,0,0,0,0,0,0,0,0,0,0,-6.7917,-6.7785,-6.8087,-6.8092,-6.8094,-6.8233,-6.8235,-6.8238,-6.8204,-6.82,-6.8196,-6.8192,-6.8335,-6.8344,-6.8354,-6.8496,0,0,-6.8383,-6.8387,0,0,0,0,0,0,0,0,-6.7909,-6.7928,-6.8089,-6.8092,-6.8094,-6.8196,-6.8179,-6.8324,-6.8205,-6.8162,-6.8195,-6.819,-6.8295,-6.8308,-6.8344,-6.8503,-6.8509,-6.8384,-6.839,-6.8394,-6.8397,0,0,0,0,0,0,0,-6.7899,-6.7921,-6.8145,-6.8092,-6.8095,-6.8086,-6.8101,-6.8206,-6.825,-6.8165,-6.8163,-6.8181,-6.8295,-6.8335,-6.8347,-6.8511,-6.8384,-6.8392,-6.8398,-6.8402,-6.8797,-6.8802,0,0,0,0,0,0,-6.7888,-6.7914,-6.814,-6.8149,-6.7989,-6.8094,-6.8111,-6.8167,-6.8249,-6.8257,-6.8185,-6.8179,-6.832,-6.8336,-6.8352,-6.8526,-6.8394,-6.8403,-6.8409,-6.8792,-6.8798,-6.8803,0,0,0,0,0,0,-6.7881,-6.7909,-6.8135,-6.8031,-6.8059,-6.8104,-6.8167,-6.8172,-6.8212,-6.8263,-6.827,-6.8217,-6.8317,-6.8338,-6.8462,-6.853,-6.8407,-6.8416,-6.8787,-6.8794,-6.8801,-6.8874,0,0,0,0,0,0,-6.7873,-6.7906,-6.7961,-6.8033,-6.8065,-6.8243,-6.8171,-6.8178,-6.8229,-6.8223,-6.8295,-6.8303,-6.8316,-6.8447,-6.8471,-6.8542,-6.8424,-6.8781,-6.879,-6.8799,-6.8866,-6.8883,-6.8897,0,0,0,0,0,-6.7862,-6.7975,-6.7964,-6.7992,-6.8135,-6.8247,-6.8265,-6.8279,-6.8235,-6.829,-6.8324,-6.8301,-6.8519,-6.846,-6.8487,-6.8561,-6.8777,-6.8788,-6.8798,-6.8859,-6.8879,-6.8897,0,0,0,0,0,0,-6.7908,-6.7984,-6.7973,-6.8113,-6.8174,-6.8241,-6.8311,-6.83,-6.8373,-6.8364,-6.8376,-6.8393,-6.8519,-6.8552,-6.8485,-6.8704,-6.8641,-6.8658,-6.8679,-6.8699,-6.8714,-6.8704,-6.8432,0,0,0,0,0,-6.7935,-6.8021,-6.8082,-6.8199,-6.823,-6.8266,-6.8315,-6.832,-6.8383,-6.8408,-6.8451,-6.8512,-6.8594,-6.8648,-6.8726,-6.887,-6.8886,-6.8934,-6.895,-6.8963,-6.8977,-6.9058,-6.9081,-6.8838,-6.8838,-6.8838,0,0,-6.799,-6.8043,-6.8096,-6.821,-6.8258,-6.8346,-6.8288,-6.8382,-6.8448,-6.8422,-6.8542,-6.8576,-6.8644,-6.8779,-6.8841,-6.8811,-6.9048,-6.8976,-6.8986,-6.8994,-6.9071,-6.9094,-6.9114,-6.8845,-6.8844,-6.8843,0,0,-6.8137,-6.8185,-6.8289,-6.8339,-6.8413,-6.8437,-6.8462,-6.8532,-6.8553,-6.8674,-6.8658,-6.8735,-6.8876,-6.8927,-6.8971,-6.914,-6.9122,-6.9164,-6.9248,-6.9326,-6.9345,-6.9362,-6.9424,-6.9446,-6.9178,-6.9179,-6.9179,0,-6.8197,-6.833,-6.8344,-6.8442,-6.8493,-6.8476,-6.8582,-6.8629,-6.8724,-6.876,-6.8725,-6.8904,-6.8948,-6.9096,-6.9138,-6.9173,-6.9203,-6.9157,-6.9342,-6.9359,-6.9375,-6.9434,-6.9457,-6.9183,-6.9183,-6.9182,-6.9182,0,-6.8401,-6.8494,-6.8569,-6.8664,-6.8724,-6.8825,-6.8853,-6.8912,-6.8912,-6.8939,-6.9063,-6.9117,-6.9207,-6.9242,-6.9242,-6.9391,-6.937,-6.9338,-6.9276,-6.9403,-6.9459,-6.9481,-6.919,-6.9189,-6.9187,-6.9186,0,0,-6.858,-6.8684,-6.8711,-6.8756,-6.8837,-6.8909,-6.9009,-6.91,-6.915,-6.9217,-6.9302,-6.9423,-6.9395,-6.9446,-6.9451,-6.952,-6.9653,-6.948,-6.9482,-6.9512,-6.9822,-6.9847,-6.9873,-6.9642,-6.9646,-6.965,-6.9817,0,-6.8736,-6.8916,-6.8932,-6.9093,-6.918,-6.9166,-6.9253,-6.9313,-6.9341,-6.9418,-6.9448,-6.9535,-6.949,-6.9521,-6.9588,-6.9623,-6.9716,-6.9611,-6.9721,-6.9725,-6.9706,-6.9902,-6.9927,-7.0083,-6.9839,-6.9842,-6.9845,0,-6.8941,-6.9017,-6.9188,-6.926,-6.9297,-6.9376,-6.9461,-6.9535,-6.9602,-6.9618,-6.9675,-6.9673,-6.9776,-6.9709,-6.9853,-6.9781,-6.9827,-6.9851,-6.9857,-6.9869,-6.9794,-6.992,-7.0132,-7.0156,-6.9879,-6.9876,-6.9874,0,-6.9058,-6.9202,-6.9324,-6.9361,-6.9448,-6.9504,-6.9542,-6.9606,-6.966,-6.9734,-6.9769,-6.9853,-6.99,-6.9965,-6.9985,-6.9934,-7.0128,-7.0062,-7.0145,-7.0144,-7.0187,-7.0184,-7.0411,-7.0214,-7.0214,-7.0213,-7.0213,0,-6.9231,-6.9336,-6.9378,-6.9452,-6.957,-6.9587,-6.9703,-6.9738,-6.9795,-6.9876,-6.9868,-6.9944,-6.9965,-7.0045,-7.0061,-7.0179,-7.0199,-7.0215,-7.0218,-7.0217,-7.0215,-7.0248,-7.0238,-7.022,-7.0218,-7.0217,-7.0216,0,-6.9381,-6.9413,-6.9545,-6.9617,-6.9637,-6.9721,-6.9783,-6.9855,-6.9882,-6.9985,-7.001,-7.0053,-7.0146,-7.0173,-7.0284,-7.0295,-7.0434,-7.0426,-7.0412,-7.0413,-7.0494,-7.0487,-7.0752,-7.0788,-7.0566,-7.0568,-7.0569,0,-6.949,-6.9572,-6.9653,-6.9708,-6.975,-6.9838,-6.9894,-6.9914,-6.9972,-7.0057,-7.0119,-7.0212,-7.0288,-7.0438,-7.0479,-7.0565,-7.056,-7.0647,-7.0573,-7.057,-7.0564,-7.0559,-7.0568,-7.0661,-7.0663,-7.0665,-7.0667,0,-6.9681,-6.9694,-6.9776,-6.9865,-6.9932,-7.0002,-7.0069,-7.0114,-7.0144,-7.021,-7.0308,-7.0367,-7.0482,-7.0575,-7.0663,-7.0701,-7.069,-7.069,-7.0714,-7.0714,-7.0703,-7.0712,-7.0452,-7.0684,-7.0682,-7.0681,-7.068,-7.0679,-6.9816,-6.9888,-6.9958,-7.005,-7.0104,-7.0167,-7.024,-7.0277,-7.0359,-7.0457,-7.0463,-7.0569,-7.0635,-7.0752,-7.0796,-7.0878,-7.0852,-7.0887,-7.0896,-7.0904,-7.0912,-7.0689,-7.0894,-7.0893,-7.0893,-7.0893,-7.0892,0,-7.0008,-7.0053,-7.0138,-7.0234,-7.0307,-7.0291,-7.0365,-7.0427,-7.0521,-7.0585,-7.066,-7.0773,-7.0864,-7.0912,-7.1002,-7.1059,-7.1057,-7.1083,-7.1079,-7.1089,-7.0929,-7.09,-7.1084,-7.1084,-7.1084,-7.1083,-7.1083,-7.1083,-7.0117,-7.024,-7.0261,-7.041,-7.0454,-7.056,-7.0604,-7.0662,-7.0714,-7.0841,-7.0917,-7.0949,-7.1007,-7.1102,-7.1184,-7.1196,-7.123,-7.126,-7.1269,-7.1119,-7.11,-7.1081,-7.1054,-7.1267,-7.1267,-7.1422,-7.1424,-7.1425]}]]